STARLINK-35466

Last updated on Tue Dec 16 2025 00:02:05 GMT+0000 (Coordinated Universal Time)

1 66457U 25262B 25349.23637655 .00048803 00000+0 11663-2 0 9996 2 66457 43.0003 57.1690 0001903 246.6252 113.4405 15.40745252 5949
UTC large
Height (km)
Speed (km/s)
/
Latitude / Longitude
Inclination (degrees)
Orbital Period (minutes)
Azimuth
Elevation
Range (km)
Doppler Factor

Next 0 passes for location: London (51.5072 / 0.1276)

Sorry there are no passes over London.